Tetuan, Morocco

12:23 PM WET on June 24, 2017 (GMT +0000)
Tetuan

Weather History for GMTN - September, 2012

Change the Weather History Date:

Tuesday, September 11, 2012

  Actual Average Record
Temperature  
Mean Temperature 73 °F -  
Max Temperature 82 °F 76 °F 90 °F (2014)
Min Temperature 64 °F 64 °F 64 °F (2012)
Cooling Degree Days 8    
Growing Degree Days 23 (Base 50)    
Moisture  
Dew Point 60 °F    
Average Humidity 64    
Maximum Humidity 83    
Minimum Humidity 37    
Precipitation  
Precipitation 0.00 in - - ()
Sea Level Pressure  
Sea Level Pressure 30.03 in    
Wind  
Wind Speed 9 mph ()    
Max Wind Speed 13 mph    
Max Gust Speed -    
Visibility 4.0 miles    
Events      
Averages and records for this station are not official NWS values.
T = Trace of Precipitation, MM = Missing Value Source: Averaged Metar Reports

Daily Weather History Graph

Daily Weather History Graph

Search for Another Location

Airport or City:

Trip Planner

Search our weather history database for the weather conditions in past years. The results will help you decide how hot, cold, wet, or windy it might be!

Date:

Astronomy

Sep. 11, 2012 Rise Set
Actual Time 7:01 AM WEST 7:33 PM WEST
Civil Twilight 6:35 AM WEST 7:59 PM WEST
Nautical Twilight 6:05 AM WEST 8:29 PM WEST
Astronomical Twilight 5:34 AM WEST 9:00 PM WEST
Moon 2:12 AM WEST (9/11) 4:27 PM WEST (9/11)
Length of Visible Light 13h 23m
Length of Day
12h 32m
Waning Crescent, 23% of the Moon is Illuminated
Sep 11
Waning Crescent
Sep 16
New
Sep 22
First Quarter
Sep 30
Full
Oct 8
Last Quarter

Hourly Weather History & Observations

Time (WEST) Temp. Heat Index Dew Point Humidity Pressure Visibility Wind Dir Wind Speed Gust Speed Precip Events Conditions
12:00 AM 73.4 °F - 59.0 °F 61% 30.04 in 2.8 mi WSW 10.4 mph - N/A   Unknown
1:00 AM 71 °F - 61 °F 63% 30.05 in 3 mi WSW 11.5 mph - -  
1:00 AM 71.6 °F - 60.8 °F 69% 30.04 in 3.1 mi WSW 11.5 mph - N/A   Unknown
2:00 AM 69.8 °F - 60.8 °F 73% 30.04 in - SW 10.4 mph - N/A   Unknown
3:00 AM 69.8 °F - 60.8 °F 73% 30.04 in - WSW 9.2 mph - N/A   Unknown
4:00 AM 69 °F - 61 °F 68% 30.03 in 3 mi WSW 10.4 mph - -  
4:00 AM 68.0 °F - 60.8 °F 78% 30.01 in 2.8 mi WSW 10.4 mph - N/A   Unknown
5:00 AM 68.0 °F - 60.8 °F 78% 30.01 in - SW 12.7 mph - N/A   Unknown
6:00 AM 66.2 °F - 59.0 °F 78% 30.01 in - South 8.1 mph - N/A   Unknown
7:00 AM 64 °F - 58 °F 75% 30.03 in 2 mi South 10.4 mph - -  
7:00 AM 64.4 °F - 59.0 °F 83% 30.01 in 1.7 mi South 10.4 mph - N/A   Unknown
8:00 AM 68.0 °F - 59.0 °F 73% 30.04 in 5.0 mi South 8.1 mph - N/A   Unknown
10:00 AM 78 °F - 57 °F 38% 30.06 in 5 mi SSW 8.1 mph - -  
10:00 AM 78.8 °F - 57.2 °F 47% 30.04 in 5.0 mi SSW 8.1 mph - N/A   Unknown
12:00 PM 80.6 °F 80.8 °F 57.2 °F 45% 30.04 in 5.0 mi East 9.2 mph - N/A   Unknown
1:00 PM 80 °F - 58 °F 37% 30.05 in 6 mi East 12.7 mph - -  
1:00 PM 78.8 °F - 57.2 °F 47% 30.04 in - East 11.5 mph - N/A   Clear
2:00 PM 78.8 °F - 60.8 °F 54% 30.04 in - East 11.5 mph - N/A   Clear
5:00 PM 78.8 °F - 62.6 °F 57% 30.01 in - East 9.2 mph - N/A   Clear
6:00 PM 78.8 °F - 62.6 °F 57% 30.01 in - East 8.1 mph - N/A   Clear
7:00 PM 76 °F - 61 °F 50% 30.01 in 6 mi ENE 9.2 mph - -  
7:00 PM 75.2 °F - 60.8 °F 61% 30.01 in - ENE 9.2 mph - N/A   Clear
8:00 PM 73.4 °F - 62.6 °F 69% 30.01 in - North 5.8 mph - N/A   Clear
9:00 PM 71.6 °F - 60.8 °F 69% 30.01 in - NNE 5.8 mph - N/A   Clear
10:00 PM 70 °F - 62 °F 69% 30.05 in 6 mi North 8.1 mph - -  
10:00 PM 69.8 °F - 62.6 °F 78% 30.04 in - North 8.1 mph - N/A   Clear
11:00 PM 69.8 °F - 64.4 °F 83% 30.04 in - NE 2.3 mph - N/A   Unknown